Regional Weather Roundup
Issued by NWS

Home | Current Version | Previous Version | Text Only | Print | Product List | Glossary Off
Versions: 1 2 3 4 5 6 7 8 9 10 11 12 13 14 15 16 17 18 19 20 21 22 23 24 25 26 27 28 29 30 31 32 33 34 35 36 37 38 39 40 41 42 43 44 45 46 47 48 49 50

392
ASUS44 KJAN 241610
RWRMS

MISSISSIPPI HOURLY WEATHER ROUNDUP
NATIONAL WEATHER SERVICE JACKSON MS
1000 AM CST SAT JAN 24 2015

NOTE: "FAIR: INDICATES FEW OR NO CLOUDS BELOW 12,000 FEET WITH NO
SIGNIFICANT WEATHER AND/OR OBSTRUCTIONS TO VISIBILITY.

MSZ001>002-007>008-010>013-018>021-025>028-034>036-241700-
NORTHWEST MISSISSIPPI

CITY           SKY/WX    TMP DP  RH WIND       PRES   REMARKS
CLARKSDALE     FAIR      41  36  81 SW6       30.10R
CLEVELAND      FAIR      40  37  88 S8        30.10S WCI  34
GREENWOOD      SUNNY     40  36  86 SW6       30.12S
GREENVILLE     SUNNY     44  32  62 SW9       30.11R
GRENADA        FAIR      37  37 100 CALM      30.11S
OLIVE BRANCH   SUNNY     39  36  87 SW13      30.05R WCI  32
OXFORD         FAIR      39  32  75 W6        30.09R WCI  35
TUNICA         SUNNY     43  32  65 SW5       30.08S
$$

MSZ003>006-009-014>017-022>024-029>033-037>039-241700-
NORTHEAST MISSISSIPPI

CITY           SKY/WX    TMP DP  RH WIND       PRES   REMARKS
COLUMBUS AFB   MOSUNNY   37  37 100 W6        30.10R WCI  33
CORINTH        FAIR      37  34  87 SW8       30.04R WCI  31
GOLDN TRIANGLE SUNNY     43  34  70 W7        30.10R
STARKVILLE     FAIR      41  34  75 W7        30.10R
TUPELO         MOSUNNY   39  34  82 MISG      30.08R
$$

MSZ040-058-241700-
CENTRAL MISSISSIPPI

CITY           SKY/WX    TMP DP  RH WIND       PRES   REMARKS
JACKSON INTL   SUNNY     43  35  73 W6        30.15R
JACKSON HAWKNS SUNNY     42  36  79 W6        30.15S
MERIDIAN KEY   PTSUNNY   41  36  82 SW6       30.14R
MERIDIAN NAS   SUNNY     41  34  76 NW8       30.12S
RAYMOND        FAIR      41  37  87 MISG      30.15F
VICKSBURG      SUNNY     42  35  76 SW5       30.17S
$$

MSZ059>079-241700-
SOUTH MISSISSIPPI

CITY           SKY/WX    TMP DP  RH WIND       PRES   REMARKS
BROOKHAVEN       N/A     43  37  81 SW6       30.18R
HATTIESBURG    MOSUNNY   41  36  82 VRB7      30.19R
MCCOMB         SUNNY     43  34  70 NW7       30.18R
NATCHEZ        SUNNY     43  36  75 CALM      30.19R
PINE BELT      CLOUDY    37  18  44 SW6       30.18R WCI  33
$$

MSZ080>082-241700-
COASTAL MISSISSIPPI

CITY           SKY/WX    TMP DP  RH WIND       PRES   REMARKS
BAY ST LOUIS   SUNNY     45  34  65 NW6       30.19S
BILOXI         SUNNY     45  38  76 NW8       30.17S
PASCAGOULA     SUNNY     47  36  65 NW7       30.16S
GULFPORT       SUNNY     44  37  76 NW8       30.17S
$$



USA.gov is the U.S. government's official web portal to all federal, state and local government web resources and services.